Weather History for Danville, KY

Change the Weather History Date:

Friday, October 12, 2012

  Actual Average (KLEX) Record (KLEX)
Temperature  
Mean Temperature 52 °F 58 °F  
Max Temperature 64 °F 69 °F 86 °F (1938)
Min Temperature 41 °F 48 °F 29 °F (1988)
Degree Days  
Heating Degree Days 12 8  
Month to date heating degree days 75  
Since 1 July heating degree days 129  
Cooling Degree Days 0 1  
Month to date cooling degree days 16  
Year to date cooling degree days 1179  
Growing Degree Days 2 (Base 50)    
Moisture  
Dew Point 42 °F    
Average Humidity 78    
Maximum Humidity 100    
Minimum Humidity 45    
Precipitation  
Precipitation 0.00 in 0.10 in 1.16 in (1916)
Month to date precipitation 1.17  
Year to date precipitation 35.75  
Snow  
Snow 0.00 in 0.00 in 0.00 in ()
Month to date snowfall 0.0  
Since 1 July snowfall 0.0  
Since 1 September snowfall 0.0  
Snow Depth -    
Sea Level Pressure  
Sea Level Pressure 30.30 in    
Wind  
Wind Speed 1 mph (ENE)    
Max Wind Speed 6 mph    
Max Gust Speed -    
Visibility 10 miles    
Events Rain    
T = Trace of Precipitation, MM = Missing Value Source: NWS Daily Summary

Daily Weather History Graph

Daily Weather History Graph

Search for Another Location

Airport:

Trip Planner

Search our weather history database for the weather conditions in past years. The results will help you decide how hot, cold, wet, or windy it might be!

Date:

Astronomy

Oct. 12, 2012 Rise Set
Actual Time 7:44 AM EDT 7:05 PM EDT
Civil Twilight 7:18 AM EDT 7:31 PM EDT
Nautical Twilight 6:48 AM EDT 8:01 PM EDT
Astronomical Twilight 6:17 AM EDT 8:32 PM EDT
Moon 4:30 AM EDT (10/12) 5:12 PM EDT (10/12)
Length of Visible Light 12h 12m
Length of Day
11h 20m
Waning Crescent, 11% of the Moon is Illuminated
Oct 12
Waning Crescent
Oct 15
New
Oct 21
First Quarter
Oct 29
Full
Nov 6
Last Quarter

Hourly Weather History & Observations

Time (EDT) Temp. Dew Point Humidity Pressure Visibility Wind Dir Wind Speed Gust Speed Precip Events Conditions
12:15 AM 44.6 °F 37.4 °F 76% 30.24 in 10.0 mi Calm Calm - N/A   Clear
12:35 AM 41.0 °F 37.4 °F 87% 30.25 in 10.0 mi Calm Calm - N/A   Clear
12:55 AM 42.8 °F 37.4 °F 81% 30.24 in 10.0 mi Calm Calm - N/A   Clear
1:15 AM 42.8 °F 37.4 °F 81% 30.25 in 10.0 mi Calm Calm - N/A   Scattered Clouds
1:35 AM 41.0 °F 37.4 °F 87% 30.25 in 10.0 mi Calm Calm - N/A   Mostly Cloudy
1:55 AM 41.0 °F 37.4 °F 87% 30.24 in 10.0 mi Calm Calm - N/A   Scattered Clouds
2:15 AM 41.0 °F 37.4 °F 87% 30.23 in 10.0 mi Calm Calm - N/A   Clear
2:35 AM 41.0 °F 37.4 °F 87% 30.24 in 10.0 mi Calm Calm - N/A   Clear
2:55 AM 41.0 °F 37.4 °F 87% 30.24 in 10.0 mi Calm Calm - N/A   Clear
3:15 AM 41.0 °F 37.4 °F 87% 30.24 in 10.0 mi Calm Calm - N/A   Clear
3:35 AM 41.0 °F 39.2 °F 93% 30.23 in 10.0 mi Calm Calm - N/A   Clear
4:15 AM 41.0 °F 37.4 °F 87% 30.25 in 10.0 mi Calm Calm - N/A   Scattered Clouds
4:35 AM 42.8 °F 39.2 °F 87% 30.26 in 10.0 mi Calm Calm - N/A   Overcast
4:55 AM 42.8 °F 41.0 °F 93% 30.27 in 10.0 mi Calm Calm - N/A   Overcast
5:15 AM 44.6 °F 41.0 °F 87% 30.27 in 10.0 mi Calm Calm - N/A   Overcast
5:35 AM 44.6 °F 41.0 °F 87% 30.26 in 10.0 mi Calm Calm - N/A   Overcast
5:55 AM 44.6 °F 42.8 °F 93% 30.25 in 10.0 mi Calm Calm - N/A Rain Light Rain
6:15 AM 44.6 °F 42.8 °F 93% 30.25 in 10.0 mi Calm Calm - N/A   Overcast
6:35 AM 44.6 °F 44.6 °F 100% 30.27 in 10.0 mi Calm Calm - N/A   Overcast
6:55 AM 44.6 °F 42.8 °F 93% 30.26 in 7.0 mi Calm Calm - N/A Rain Rain
7:15 AM 44.6 °F 44.6 °F 100% 30.27 in 7.0 mi Calm Calm - N/A Rain Light Rain
7:35 AM 44.6 °F 44.6 °F 100% 30.28 in 10.0 mi Calm Calm - N/A Rain Light Rain
7:55 AM 44.6 °F 44.6 °F 100% 30.28 in 10.0 mi Calm Calm - N/A   Overcast
8:15 AM 46.4 °F 44.6 °F 93% 30.29 in 10.0 mi Calm Calm - N/A   Overcast
8:35 AM 46.4 °F 44.6 °F 93% 30.30 in 10.0 mi Calm Calm - N/A   Light Drizzle
8:55 AM 46.4 °F 46.4 °F 100% 30.30 in 10.0 mi Calm Calm - N/A   Overcast
9:15 AM 46.4 °F 46.4 °F 100% 30.31 in 10.0 mi Calm Calm - N/A Rain Light Rain
9:35 AM 48.2 °F 46.4 °F 93% 30.32 in 10.0 mi Calm Calm - N/A Rain Light Rain
10:15 AM 50.0 °F 46.4 °F 87% 30.33 in 10.0 mi Calm Calm - N/A   Overcast
10:35 AM 51.8 °F 46.4 °F 82% 30.33 in 10.0 mi Calm Calm - N/A   Overcast
10:55 AM 51.8 °F 46.4 °F 82% 30.33 in 10.0 mi Calm Calm - N/A   Overcast
11:15 AM 53.6 °F 44.6 °F 72% 30.33 in 10.0 mi Calm Calm - N/A   Overcast
11:35 AM 53.6 °F 44.6 °F 72% 30.34 in 10.0 mi Calm Calm - N/A   Overcast
11:55 AM 53.6 °F 44.6 °F 72% 30.34 in 10.0 mi NE 3.5 mph - N/A   Overcast
12:15 PM 53.6 °F 42.8 °F 67% 30.34 in 10.0 mi East 4.6 mph - N/A   Overcast
12:35 PM 55.4 °F 42.8 °F 63% 30.34 in 10.0 mi ENE 3.5 mph - N/A   Overcast
1:15 PM 57.2 °F 41.0 °F 55% 30.34 in 10.0 mi East 3.5 mph - N/A   Overcast
1:35 PM 59.0 °F 41.0 °F 51% 30.34 in 10.0 mi ENE 4.6 mph - N/A   Overcast
1:55 PM 59.0 °F 42.8 °F 55% 30.33 in 10.0 mi ENE 3.5 mph - N/A   Overcast
2:35 PM 60.8 °F 42.8 °F 52% 30.32 in 10.0 mi East 4.6 mph - N/A   Scattered Clouds
2:55 PM 62.6 °F 42.8 °F 48% 30.32 in 10.0 mi Calm Calm - N/A   Clear
3:15 PM 60.8 °F 42.8 °F 52% 30.31 in 10.0 mi Calm Calm - N/A   Clear
3:35 PM 62.6 °F 41.0 °F 45% 30.30 in 10.0 mi East 4.6 mph - N/A   Clear
3:55 PM 62.6 °F 42.8 °F 48% 30.31 in 10.0 mi NNE 4.6 mph - N/A   Clear
4:15 PM 64.4 °F 44.6 °F 49% 30.31 in 10.0 mi NNE 4.6 mph - N/A   Clear
4:35 PM 64.4 °F 42.8 °F 45% 30.31 in 10.0 mi North 5.8 mph - N/A   Clear
4:55 PM 62.6 °F 42.8 °F 48% 30.30 in 10.0 mi Calm Calm - N/A   Clear
5:15 PM 62.6 °F 42.8 °F 48% 30.30 in 10.0 mi NNE 3.5 mph - N/A   Clear
5:35 PM 62.6 °F 42.8 °F 48% 30.31 in 10.0 mi Calm Calm - N/A   Clear
6:15 PM 62.6 °F 42.8 °F 48% 30.31 in 10.0 mi Calm Calm - N/A   Clear
6:55 PM 55.4 °F 44.6 °F 67% 30.32 in 10.0 mi Calm Calm - N/A   Clear
7:15 PM 53.6 °F 44.6 °F 72% 30.32 in 10.0 mi Calm Calm - N/A   Clear
7:35 PM 53.6 °F 42.8 °F 67% 30.31 in 10.0 mi Calm Calm - N/A   Clear
7:55 PM 51.8 °F 44.6 °F 76% 30.32 in 10.0 mi Calm Calm - N/A   Clear
8:15 PM 50.0 °F 42.8 °F 76% 30.32 in 10.0 mi Calm Calm - N/A   Clear
8:35 PM 50.0 °F 44.6 °F 82% 30.32 in 10.0 mi Calm Calm - N/A   Clear
8:55 PM 50.0 °F 44.6 °F 82% 30.32 in 10.0 mi Calm Calm - N/A   Clear
9:15 PM 46.4 °F 44.6 °F 93% 30.33 in 10.0 mi Calm Calm - N/A   Clear
9:35 PM 46.4 °F 44.6 °F 93% 30.34 in 10.0 mi Calm Calm - N/A   Clear
10:15 PM 46.4 °F 42.8 °F 87% 30.34 in 10.0 mi Calm Calm - N/A   Clear
10:35 PM 44.6 °F 44.6 °F 100% 30.34 in 10.0 mi Calm Calm - N/A   Clear
10:55 PM 44.6 °F 42.8 °F 93% 30.34 in 10.0 mi Calm Calm - N/A   Clear
11:15 PM 44.6 °F 42.8 °F 93% 30.34 in 10.0 mi Calm Calm - N/A   Clear
11:55 PM 44.6 °F 42.8 °F 93% 30.34 in 10.0 mi Calm Calm - N/A   Clear